Bibliothèque

Musique » Rosaline »

The Messenger, Infinite Ce titre fait partie des coups de cœur de Epatica

80 écoutes | Se rendre sur la page du titre

Du Vendredi 13 mai 2011 au Dimanche 13 mai 2012 Tout le temps

Titres (80)
Titre Album Durée Date
The Messenger, Infinite
3:28 24 avr. 2012, 9h14m
The Messenger, Infinite
3:28 22 avr. 2012, 4h44m
The Messenger, Infinite 3:28 1 avr. 2012, 17h33m
The Messenger, Infinite 3:28 1 avr. 2012, 5h20m
The Messenger, Infinite 3:28 30 mars 2012, 21h54m
The Messenger, Infinite 3:28 29 mars 2012, 14h13m
The Messenger, Infinite 3:28 28 mars 2012, 11h14m
The Messenger, Infinite 3:28 27 mars 2012, 7h38m
The Messenger, Infinite 3:28 26 mars 2012, 20h52m
The Messenger, Infinite 3:28 26 mars 2012, 3h44m
The Messenger, Infinite 3:28 24 mars 2012, 19h46m
The Messenger, Infinite 3:28 24 mars 2012, 16h46m
The Messenger, Infinite 3:28 23 mars 2012, 12h39m
The Messenger, Infinite 3:28 22 mars 2012, 11h47m
The Messenger, Infinite 3:28 21 mars 2012, 21h08m
The Messenger, Infinite 3:28 21 mars 2012, 5h17m
The Messenger, Infinite 3:28 19 mars 2012, 20h18m
The Messenger, Infinite
3:28 19 mars 2012, 1h05m
The Messenger, Infinite 3:28 18 mars 2012, 12h48m
The Messenger, Infinite 3:28 17 mars 2012, 5h22m
The Messenger, Infinite 3:28 16 mars 2012, 3h16m
The Messenger, Infinite 3:28 15 mars 2012, 7h40m
The Messenger, Infinite 3:28 14 mars 2012, 2h53m
The Messenger, Infinite 3:28 13 mars 2012, 23h09m
The Messenger, Infinite 3:28 13 mars 2012, 2h56m
The Messenger, Infinite 3:28 12 mars 2012, 12h33m
The Messenger, Infinite 3:28 11 mars 2012, 2h20m
The Messenger, Infinite 3:28 10 mars 2012, 2h38m
The Messenger, Infinite 3:28 9 mars 2012, 12h37m
The Messenger, Infinite 3:28 8 mars 2012, 23h09m
The Messenger, Infinite 3:28 7 mars 2012, 12h34m
The Messenger, Infinite 3:28 6 mars 2012, 14h34m
The Messenger, Infinite 3:28 5 mars 2012, 3h22m
The Messenger, Infinite 3:28 26 fév. 2012, 7h12m
The Messenger, Infinite 3:28 26 fév. 2012, 2h55m
The Messenger, Infinite 3:28 23 fév. 2012, 4h01m
The Messenger, Infinite 3:28 22 fév. 2012, 6h36m
The Messenger, Infinite 3:28 21 fév. 2012, 5h48m
The Messenger, Infinite 3:28 20 fév. 2012, 2h27m
The Messenger, Infinite 3:28 19 fév. 2012, 10h57m
The Messenger, Infinite 3:28 18 fév. 2012, 11h59m
The Messenger, Infinite 3:28 17 fév. 2012, 9h42m
The Messenger, Infinite 3:28 16 fév. 2012, 14h19m
The Messenger, Infinite 3:28 13 fév. 2012, 2h57m
The Messenger, Infinite 3:28 11 fév. 2012, 16h27m
The Messenger, Infinite 3:28 10 fév. 2012, 14h08m
The Messenger, Infinite 3:28 10 fév. 2012, 6h33m
The Messenger, Infinite 3:28 8 fév. 2012, 23h28m
The Messenger, Infinite
3:28 7 fév. 2012, 20h53m
The Messenger, Infinite 3:28 7 fév. 2012, 6h55m
The Messenger, Infinite 3:28 5 fév. 2012, 23h40m
The Messenger, Infinite 3:28 5 fév. 2012, 13h32m
The Messenger, Infinite
3:28 5 fév. 2012, 4h35m
The Messenger, Infinite
3:28 3 fév. 2012, 15h21m
The Messenger, Infinite 3:28 1 fév. 2012, 17h29m
The Messenger, Infinite 3:28 29 jan. 2012, 19h53m
The Messenger, Infinite
3:28 29 jan. 2012, 3h17m
The Messenger, Infinite 3:28 28 jan. 2012, 3h57m
The Messenger, Infinite 3:28 27 jan. 2012, 19h05m
The Messenger, Infinite 3:28 27 jan. 2012, 7h34m
The Messenger, Infinite 3:28 26 jan. 2012, 4h26m
The Messenger, Infinite 3:28 24 jan. 2012, 17h17m
The Messenger, Infinite
3:28 23 jan. 2012, 16h02m
The Messenger, Infinite 3:28 21 jan. 2012, 6h37m
The Messenger, Infinite
3:28 21 jan. 2012, 4h02m
The Messenger, Infinite
3:28 20 jan. 2012, 12h19m
The Messenger, Infinite
3:28 19 jan. 2012, 19h45m
The Messenger, Infinite
3:28 15 jan. 2012, 9h44m
The Messenger, Infinite
3:28 12 jan. 2012, 17h31m
The Messenger, Infinite
3:28 11 jan. 2012, 17h15m
The Messenger, Infinite
3:28 11 jan. 2012, 6h21m
The Messenger, Infinite
3:28 9 jan. 2012, 16h14m
The Messenger, Infinite
3:28 8 jan. 2012, 19h23m
The Messenger, Infinite
3:28 7 jan. 2012, 17h37m
The Messenger, Infinite
3:28 7 jan. 2012, 13h34m
The Messenger, Infinite
3:28 7 jan. 2012, 1h45m
The Messenger, Infinite
3:28 6 jan. 2012, 15h05m
The Messenger, Infinite
3:28 1 déc. 2011, 8h58m
The Messenger, Infinite
3:28 5 nov. 2011, 9h29m
The Messenger, Infinite
3:28 21 août 2011, 2h00m